Content
SEND FEEDBACK

Daily
Averages
Monthly
Summary
India

LUCKNOW, INDIA


Home > Asia > India
Elevation: 400 feet     Latitude: 26 45N     Longitude: 080 52E

WEATHER
 
SELECT A DAY
Number of Records: 129,148;   Date Range: 7/2/96 - 10/22/14
 
SHARE

PRINT THIS DATA

[ ← Previous Day ]
WEATHER ALMANAC - OCTOBER 18, 2013
[ Next Day → ]
[ °C ]   °F
Weather ElementAverageHighLow
Temperature80.9 °F89.6 °F (3:30 pm)73 °F (2:30 am)
Dewpoint73.1 °F77 °F (7:30 pm)71.6 °F (2:00 am)
Humidity77.5 %95 % (2:30 am)57 % (5:30 pm)
Barometer29.84 in29.92 in (9:00 am)29.80 in (2:30 pm)
Wind Speed2.2 mph5.8 mph (1:30 pm)
Weather ElementAverage
Visibility1.9 mi
Wind DirectionESE (97.1 °)

Weather ElementTotal
Precipitation---
Cooling Degree Days16.3 (Base 65)
Growing Degree Days31.3 (Base 50)
Averaged from 40 records on October 18, 2013
WEATHER CONDITIONS BREAKOUT
WIND DIRECTION BREAKOUT
WEATHER BY HOUR - OCTOBER 18, 2013
[ °C ]   °F
Local TimeTemperatureDewpointHumidityBarometerVisibilityWind DirectionWind SpeedGust SpeedPrecipitationEventsConditions
2:00 AM73.4 °F71.6 °F94 %29.83 in1.2 miVariable2.3 mphPartly Cloudy
2:30 AM73.0 °F72.0 °F95 %29.84 in1.0 mi°1.2 mphHaze
3:00 AM73.4 °F71.6 °F94 %29.83 in1.2 miCalmPartly Cloudy
4:00 AM73.4 °F71.6 °F94 %29.83 in1.2 miCalmPartly Cloudy
5:30 AM73.4 °F71.6 °F94 %29.83 in0.7 miVariable2.3 mphPartly Cloudy
5:30 AM73.0 °F72.0 °F95 %29.84 in1.0 mi°2.3 mphMist
6:00 AM73.4 °F71.6 °F94 %29.83 in0.6 miVariable2.3 mphPartly Cloudy
6:30 AM73.4 °F71.6 °F94 %29.86 in0.6 miVariable2.3 mphPartly Cloudy
7:00 AM73.4 °F71.6 °F94 %29.86 in0.6 miVariable2.3 mphPartly Cloudy
7:30 AM75.2 °F71.6 °F89 %29.89 in0.6 miVariable2.3 mphPartly Cloudy
8:30 AM78.8 °F73.4 °F83 %29.89 in0.9 miWest (270°)3.5 mphMist
9:00 AM80.6 °F73.4 °F79 %29.92 in1.2 miWSW (240°)3.5 mphMist
10:30 AM84.2 °F73.4 °F70 %29.92 in2.5 miNNW (340°)3.5 mphHaze
11:00 AM84.2 °F73.4 °F70 %29.92 in2.5 miNW (320°)4.6 mphHaze
11:30 AM86.0 °F74.0 °F60 %29.90 in2.0 miNW (320°)3.5 mphHaze
11:30 AM86.0 °F73.4 °F66 %29.89 in2.5 miNW (320°)3.5 mphHaze
12:00 PM86.0 °F73.4 °F66 %29.86 in2.5 miNNW (330°)3.5 mphHaze
12:30 PM86.0 °F73.4 °F66 %29.86 in2.5 miVariable2.3 mphHaze
1:00 PM86.0 °F75.2 °F70 %29.86 in2.5 miNorth (350°)3.5 mphHaze
1:30 PM86.0 °F73.4 °F66 %29.83 in2.5 miEast (80°)5.8 mphHaze
2:00 PM86.0 °F73.4 °F66 %29.83 in2.5 miEast (80°)2.3 mphHaze
2:30 PM87.8 °F73.4 °F62 %29.80 in2.5 miNE (50°)2.3 mphHaze
3:00 PM87.8 °F73.4 °F62 %29.80 in2.5 miNE (50°)2.3 mphHaze
3:30 PM89.6 °F73.4 °F59 %29.80 in2.5 miNW (310°)2.3 mphHaze
4:00 PM87.8 °F71.6 °F58 %29.80 in2.5 miNNW (340°)2.3 mphHaze
4:30 PM87.8 °F71.6 °F58 %29.80 in2.5 miVariable2.3 mphHaze
5:00 PM86.0 °F71.6 °F62 %29.80 in2.5 miVariable2.3 mphHaze
5:30 PM86.0 °F73.0 °F57 %29.81 in2.0 mi°2.3 mphHaze
5:30 PM86.0 °F73.4 °F66 %29.80 in2.5 miVariable2.3 mphHaze
6:00 PM84.2 °F73.4 °F70 %29.80 in2.5 miVariable2.3 mphHaze
6:30 PM82.4 °F73.4 °F74 %29.80 in2.5 miVariable2.3 mphHaze
7:00 PM82.4 °F73.4 °F74 %29.80 in2.5 miVariable2.3 mphHaze
7:30 PM78.8 °F77.0 °F94 %29.83 in2.5 miVariable2.3 mphHaze
8:00 PM78.8 °F75.2 °F89 %29.83 in2.5 miCalmHaze
8:30 PM78.0 °F74.0 °F84 %29.84 in2.0 miCalmHaze
8:30 PM78.8 °F73.4 °F83 %29.83 in2.5 miCalmHaze
9:00 PM78.8 °F73.4 °F83 %29.83 in2.5 miVariable2.3 mphHaze
10:00 PM77.0 °F73.4 °F89 %29.86 in2.5 miCalmHaze
11:00 PM77.0 °F73.4 °F89 %29.83 in2.2 miCalmHaze
11:30 PM77.0 °F74.0 °F87 %29.85 in1.0 mi°2.3 mphHaze
Hourly data recorded from VILK, located miles away from Lucknow, India







STORIES FROM OUR PARTNERS